IBE6313 LEMD-MROC

Flight info

Callsign IBE6313
Flight time N/A
Altitude 29000
Route BARDI DCT TUNAV DCT KOMUT/M080F300 DCT 37N020W 35N030W/M080F320 3130N04000W 26N050W DCT RKDIA/M080F340 DCT DAWIN/N0472F340 DCT MELLA DCT PALAS DCT OROSA UM597 ERIKO DCT TIMRO DCT DAGAS DCT ISEBA CUARE3I
Aircraft A346/H-SDE2E3FGHIJ3J4J5M1RWXY/LB1D1

Departure

Time 2026-05-06 20:34
Airport Adolfo Suárez Madrid–Barajas Airport (LEMD)

Arrival

Time N/A
Airport Juan Santamaría International Airport (MROC)
Time Latitude Longitude Altitude Speed Heading
2026-05-06 19:52 40.49538 -3.56881 1980 ft 0 kts 87°
2026-05-06 20:21 40.49537 -3.56908 1980 ft 4 kts 87°
2026-05-06 20:21 40.49536 -3.56944 1980 ft 4 kts 88°
2026-05-06 20:21 40.49536 -3.56973 1982 ft 4 kts 101°
2026-05-06 20:21 40.49543 -3.56994 1984 ft 4 kts 139°
2026-05-06 20:22 40.49560 -3.57003 1986 ft 4 kts 175°
2026-05-06 20:22 40.49586 -3.57003 1986 ft 4 kts 181°
2026-05-06 20:22 40.49595 -3.57003 1986 ft 0 kts 180°
2026-05-06 20:26 40.49593 -3.57003 1985 ft 1 kts 180°
2026-05-06 20:26 40.49572 -3.57003 1988 ft 5 kts 180°
2026-05-06 20:26 40.49529 -3.57003 1987 ft 8 kts 180°
2026-05-06 20:27 40.49467 -3.57003 1986 ft 10 kts 180°
2026-05-06 20:27 40.49445 -3.57003 1986 ft 0 kts 180°
2026-05-06 20:27 40.49439 -3.57003 1986 ft 2 kts 180°
2026-05-06 20:27 40.49412 -3.57003 1985 ft 6 kts 180°
2026-05-06 20:28 40.49336 -3.57009 1985 ft 13 kts 200°
2026-05-06 20:28 40.49290 -3.57121 1989 ft 15 kts 278°
2026-05-06 20:28 40.49281 -3.57207 1990 ft 0 kts 201°
2026-05-06 20:29 40.49270 -3.57213 1991 ft 4 kts 200°
2026-05-06 20:29 40.49233 -3.57225 1991 ft 4 kts 187°
2026-05-06 20:29 40.49216 -3.57227 1993 ft 1 kts 190°
2026-05-06 20:30 40.49209 -3.57230 1993 ft 1 kts 204°
2026-05-06 20:30 40.49192 -3.57264 1993 ft 0 kts 251°
2026-05-06 20:31 40.49191 -3.57268 1993 ft 1 kts 251°
2026-05-06 20:31 40.49186 -3.57292 1994 ft 6 kts 258°
2026-05-06 20:31 40.49187 -3.57394 1995 ft 14 kts 296°
2026-05-06 20:31 40.49266 -3.57451 1993 ft 15 kts 358°
2026-05-06 20:32 40.49300 -3.57452 1992 ft 0 kts 359°
2026-05-06 20:32 40.49312 -3.57452 1992 ft 11 kts 359°
2026-05-06 20:33 40.49576 -3.57456 1993 ft 67 kts 359°
2026-05-06 20:33 40.50258 -3.57461 1997 ft 123 kts 360°
2026-05-06 20:33 40.51294 -3.57477 2005 ft 171 kts
2026-05-06 20:33 40.52601 -3.57445 2148 ft 194 kts
2026-05-06 20:34 40.53978 -3.57411 2710 ft 196 kts
2026-05-06 20:34 40.55382 -3.57493 3294 ft 201 kts 341°
2026-05-06 20:34 40.56474 -3.58587 3804 ft 206 kts 300°
2026-05-06 20:34 40.56948 -3.60394 4102 ft 215 kts 287°
2026-05-06 20:35 40.57696 -3.62128 4317 ft 225 kts 319°
2026-05-06 20:35 40.59010 -3.63287 4665 ft 229 kts 330°
2026-05-06 20:35 40.60388 -3.64364 5144 ft 231 kts 328°
2026-05-06 20:35 40.61725 -3.65549 5634 ft 232 kts 324°
2026-05-06 20:36 40.63022 -3.66828 6093 ft 234 kts 320°
2026-05-06 20:36 40.64005 -3.68592 6485 ft 236 kts 284°
2026-05-06 20:36 40.64119 -3.70776 6758 ft 245 kts 267°
2026-05-06 20:36 40.64051 -3.73088 6985 ft 259 kts 267°
2026-05-06 20:37 40.63982 -3.75518 7240 ft 272 kts 267°
2026-05-06 20:37 40.63922 -3.78043 7547 ft 282 kts 268°
2026-05-06 20:37 40.63870 -3.80638 8025 ft 286 kts 268°
2026-05-06 20:37 40.63821 -3.83320 8323 ft 298 kts 268°
2026-05-06 20:38 40.63773 -3.86077 8814 ft 302 kts 268°
2026-05-06 20:38 40.63727 -3.88849 9409 ft 303 kts 268°
2026-05-06 20:38 40.63681 -3.91636 9956 ft 305 kts 268°
2026-05-06 20:38 40.63634 -3.94450 10413 ft 309 kts 268°
2026-05-06 20:39 40.63585 -3.97350 10637 ft 322 kts 267°
2026-05-06 20:39 40.63532 -4.00356 10877 ft 334 kts 267°
2026-05-06 20:39 40.63478 -4.03440 11103 ft 346 kts 267°
2026-05-06 20:39 40.63420 -4.06666 11326 ft 358 kts 267°
2026-05-06 20:40 40.63360 -4.10022 11561 ft 370 kts 267°
2026-05-06 20:40 40.63297 -4.13465 11890 ft 378 kts 267°
2026-05-06 20:40 40.63233 -4.16947 12456 ft 380 kts 267°
2026-05-06 20:40 40.63170 -4.20398 13050 ft 381 kts 267°
2026-05-06 20:41 40.63104 -4.23900 13609 ft 383 kts 267°
2026-05-06 20:41 40.63035 -4.27421 14108 ft 385 kts 267°
2026-05-06 20:41 40.62965 -4.30957 14596 ft 387 kts 267°
2026-05-06 20:41 40.62893 -4.34518 15082 ft 388 kts 267°
2026-05-06 20:42 40.62820 -4.38080 15557 ft 390 kts 267°
2026-05-06 20:42 40.62746 -4.41667 16022 ft 392 kts 267°
2026-05-06 20:42 40.62671 -4.45266 16519 ft 393 kts 267°
2026-05-06 20:42 40.62594 -4.48834 16996 ft 395 kts 267°
2026-05-06 20:43 40.62367 -4.52459 17435 ft 396 kts 258°
2026-05-06 20:43 40.61550 -4.55930 17883 ft 397 kts 245°
2026-05-06 20:43 40.60173 -4.59092 18339 ft 399 kts 234°
2026-05-06 20:43 40.58521 -4.62035 18743 ft 400 kts 233°
2026-05-06 20:44 40.56831 -4.64975 19127 ft 402 kts 233°
2026-05-06 20:44 40.55150 -4.67901 19489 ft 405 kts 233°
2026-05-06 20:44 40.53444 -4.70879 19876 ft 407 kts 233°
2026-05-06 20:44 40.51737 -4.73867 20245 ft 409 kts 233°
2026-05-06 20:45 40.50021 -4.76874 20623 ft 411 kts 233°
2026-05-06 20:45 40.48293 -4.79902 21002 ft 414 kts 233°
2026-05-06 20:45 40.46580 -4.82906 21344 ft 416 kts 234°
2026-05-06 20:45 40.45122 -4.86210 21655 ft 420 kts 248°
2026-05-06 20:46 40.44400 -4.89931 22003 ft 423 kts 263°
2026-05-06 20:46 40.44441 -4.93834 22343 ft 427 kts 275°
2026-05-06 20:46 40.44852 -4.97703 22723 ft 428 kts 276°
2026-05-06 20:46 40.45288 -5.01609 23030 ft 432 kts 276°
2026-05-06 20:47 40.45723 -5.05531 23332 ft 435 kts 276°
2026-05-06 20:47 40.46152 -5.09447 23628 ft 437 kts 276°
2026-05-06 20:47 40.46582 -5.13433 23899 ft 439 kts 276°
2026-05-06 20:47 40.47008 -5.17421 24192 ft 440 kts 276°
2026-05-06 20:48 40.47433 -5.21434 24514 ft 442 kts 276°
2026-05-06 20:48 40.47713 -5.24089 24704 ft 443 kts 276°
2026-05-06 20:48 40.48136 -5.28113 24981 ft 445 kts 276°
2026-05-06 20:48 40.48561 -5.32180 25256 ft 446 kts 276°
2026-05-06 20:49 40.48985 -5.36249 25550 ft 448 kts 276°
2026-05-06 20:49 40.49407 -5.40316 25825 ft 449 kts 276°
2026-05-06 20:49 40.49830 -5.44411 26096 ft 451 kts 276°
2026-05-06 20:49 40.50252 -5.48505 26360 ft 452 kts 276°
2026-05-06 20:50 40.50674 -5.52613 26619 ft 454 kts 276°
2026-05-06 20:50 40.51095 -5.56733 26878 ft 455 kts 276°
2026-05-06 20:50 40.51520 -5.60906 27141 ft 457 kts 275°
2026-05-06 20:50 40.51936 -5.65006 27384 ft 458 kts 275°
2026-05-06 20:51 40.52358 -5.69176 27636 ft 460 kts 275°
2026-05-06 20:51 40.52779 -5.73354 27943 ft 460 kts 275°
2026-05-06 20:51 40.53200 -5.77541 28330 ft 458 kts 275°
2026-05-06 20:51 40.53614 -5.81683 28715 ft 456 kts 275°
2026-05-06 20:52 40.54027 -5.85821 29086 ft 455 kts 275°